| time (UTC) | temp F | wind direction | speed knots | gust knots | rain 1hr in | rain 24hr in | rain mn in | humidity % | barometer mb |
| 20260505121651 | 54 | 360 | 0.9 | 3.5 | 0.00 | 0.00 | 0.00 | 68 | 1006.2 |
| 20260505120621 | 54 | 360 | 1.7 | 3.5 | 0.00 | 0.00 | 0.00 | 68 | 1006.1 |
| 20260505115619 | 55 | 360 | 2.6 | 3.5 | 0.00 | 0.00 | 0.00 | 67 | 1006.0 |
| 20260505114646 | 55 | 360 | 2.6 | 4.3 | 0.00 | 0.00 | 0.00 | 66 | 1006.0 |
| 20260505113628 | 55 | 178 | 1.7 | 3.5 | 0.00 | 0.00 | 0.00 | 65 | 1006.0 |
| 20260505112633 | 55 | 178 | 0.9 | 1.7 | 0.00 | 0.00 | 0.00 | 64 | 1006.1 |
| 20260505111624 | 56 | 178 | 0.9 | 4.3 | 0.00 | 0.00 | 0.00 | 63 | 1005.9 |
| 20260505110615 | 56 | 360 | 2.6 | 5.2 | 0.00 | 0.00 | 0.00 | 62 | 1005.9 |
| 20260505101624 | 56 | 360 | 1.7 | 3.5 | 0.00 | 0.00 | 0.00 | 63 | 1005.9 |
| 20260505100629 | 56 | 360 | 2.6 | 4.3 | 0.00 | 0.00 | 0.00 | 63 | 1006.0 |
| 20260505095628 | 56 | 360 | 3.5 | 7.8 | 0.00 | 0.00 | 0.00 | 62 | 1006.0 |
| 20260505094641 | 57 | 360 | 3.5 | 7.0 | 0.00 | 0.00 | 0.00 | 61 | 1006.0 |
| 20260505093648 | 57 | 360 | 3.5 | 7.8 | 0.00 | 0.00 | 0.00 | 60 | 1006.1 |
| 20260505092627 | 57 | 360 | 4.3 | 9.6 | 0.00 | 0.00 | 0.00 | 59 | 1006.1 |
| 20260505091653 | 57 | 360 | 3.5 | 7.8 | 0.00 | 0.00 | 0.00 | 59 | 1006.2 |
| 20260505090636 | 57 | 360 | 4.3 | 7.8 | 0.00 | 0.00 | 0.00 | 58 | 1006.2 |
| 20260505085615 | 57 | 360 | 3.5 | 7.8 | 0.00 | 0.00 | 0.00 | 58 | 1006.2 |
| 20260505084620 | 58 | 360 | 3.5 | 7.8 | 0.00 | 0.00 | 0.00 | 56 | 1006.2 |
| 20260505083648 | 58 | 360 | 4.3 | 8.7 | 0.00 | 0.00 | 0.00 | 56 | 1006.3 |
| 20260505082615 | 58 | 360 | 4.3 | 11.3 | 0.00 | 0.00 | 0.00 | 56 | 1006.3 |
| 20260505081626 | 57 | 360 | 4.3 | 7.0 | 0.00 | 0.00 | 0.00 | 58 | 1006.2 |
| 20260505080625 | 57 | 360 | 4.3 | 7.0 | 0.00 | 0.00 | 0.00 | 59 | 1006.4 |
| 20260505075647 | 57 | 360 | 2.6 | 7.0 | 0.00 | 0.00 | 0.00 | 59 | 1006.5 |
| 20260505074612 | 58 | 360 | 3.5 | 8.7 | 0.00 | 0.00 | 0.00 | 59 | 1006.6 |
| 20260505073616 | 58 | 360 | 3.5 | 7.0 | 0.00 | 0.00 | 0.00 | 59 | 1006.6 |
| 20260505072624 | 58 | 360 | 3.5 | 5.2 | 0.00 | 0.00 | 0.00 | 60 | 1006.8 |
| 20260505071615 | 58 | 360 | 2.6 | 5.2 | 0.00 | 0.00 | 0.00 | 60 | 1006.8 |
| 20260505070615 | 58 | 360 | 1.7 | 3.5 | 0.00 | 0.00 | 0.00 | 61 | 1007.0 |
| 20260505065627 | 58 | 360 | 1.7 | 4.3 | 0.00 | 0.00 | 0.00 | 60 | 1006.9 |
| 20260505064639 | 59 | 360 | 1.7 | 4.3 | 0.00 | 0.00 | 0.00 | 60 | 1007.0 |
| 20260505063628 | 59 | 360 | 2.6 | 5.2 | 0.00 | 0.00 | 0.00 | 60 | 1006.9 |
| 20260505062615 | 59 | 360 | 3.5 | 5.2 | 0.00 | 0.00 | 0.00 | 59 | 1006.7 |
| 20260505061622 | 59 | 360 | 3.5 | 7.8 | 0.00 | 0.00 | 0.00 | 59 | 1006.7 |
| 20260505060617 | 59 | 360 | 6.1 | 10.4 | 0.00 | 0.00 | 0.00 | 59 | 1006.7 |
| 20260505055627 | 59 | 360 | 6.1 | 11.3 | 0.00 | 0.00 | 0.00 | 59 | 1006.6 |
| 20260505054614 | 59 | 360 | 3.5 | 8.7 | 0.00 | 0.00 | 0.00 | 57 | 1006.4 |
| 20260505053621 | 59 | 360 | 1.7 | 2.6 | 0.00 | 0.00 | 0.00 | 56 | 1006.0 |
| 20260505052614 | 60 | 360 | 0.9 | 3.5 | 0.00 | 0.00 | 0.00 | 55 | 1006.0 |
| 20260505051638 | 61 | 360 | 1.7 | 5.2 | 0.00 | 0.00 | 0.00 | 53 | 1005.8 |
| 20260505050620 | 61 | 151 | 2.6 | 4.3 | 0.00 | 0.00 | 0.00 | 52 | 1005.7 |
| 20260505041626 | 62 | 360 | 4.3 | 7.8 | 0.00 | 0.00 | 0.00 | 46 | 1005.0 |
| 20260505040613 | 63 | 360 | 3.5 | 5.2 | 0.00 | 0.00 | 0.00 | 46 | 1004.6 |
| 20260505035629 | 63 | 360 | 3.5 | 7.0 | 0.00 | 0.00 | 0.00 | 46 | 1004.6 |
| 20260505034616 | 63 | 360 | 2.6 | 7.0 | 0.00 | 0.00 | 0.00 | 45 | 1004.6 |
| 20260505033621 | 63 | 360 | 2.6 | 3.5 | 0.00 | 0.00 | 0.00 | 42 | 1004.4 |
| 20260505032631 | 64 | 360 | 0.9 | 2.6 | 0.00 | 0.00 | 0.00 | 41 | 1004.3 |
| 20260505031619 | 65 | 360 | 1.7 | 2.6 | 0.00 | 0.00 | 0.00 | 39 | 1004.1 |
| 20260505030628 | 65 | 178 | 2.6 | 3.5 | 0.00 | 0.00 | 0.00 | 38 | 1003.9 |
| 20260505025629 | 65 | 360 | 2.6 | 5.2 | 0.00 | 0.00 | 0.00 | 38 | 1003.8 |
| 20260505024620 | 66 | 360 | 3.5 | 7.0 | 0.00 | 0.00 | 0.00 | 37 | 1003.6 |
| 20260505023645 | 66 | 360 | 3.5 | 7.0 | 0.00 | 0.00 | 0.00 | 37 | 1003.7 |
| 20260505022617 | 66 | 360 | 4.3 | 7.8 | 0.00 | 0.00 | 0.00 | 37 | 1003.5 |
| 20260505021626 | 67 | 360 | 5.2 | 8.7 | 0.00 | 0.00 | 0.00 | 36 | 1003.5 |
| 20260505020616 | 68 | 360 | 4.3 | 7.0 | 0.00 | 0.00 | 0.00 | 36 | 1003.4 |
| 20260505015613 | 69 | 360 | 4.3 | 7.0 | 0.00 | 0.00 | 0.00 | 35 | 1003.4 |
| 20260505014620 | 69 | 360 | 5.2 | 8.7 | 0.00 | 0.00 | 0.00 | 34 | 1003.3 |
| 20260505013627 | 70 | 360 | 4.3 | 7.0 | 0.00 | 0.00 | 0.00 | 33 | 1003.2 |
| 20260505012632 | 70 | 360 | 5.2 | 7.8 | 0.00 | 0.00 | 0.00 | 33 | 1003.2 |
| 20260505011621 | 71 | 360 | 5.2 | 10.4 | 0.00 | 0.00 | 0.00 | 34 | 1003.4 |
| 20260505010618 | 71 | 360 | 8.7 | 14.8 | 0.00 | 0.00 | 0.00 | 31 | 1003.4 |
| 20260505005630 | 72 | 360 | 7.8 | 11.3 | 0.00 | 0.00 | 0.00 | 32 | 1003.5 |
| 20260505004617 | 72 | 360 | 7.0 | 13.0 | 0.00 | 0.00 | 0.00 | 31 | 1003.6 |
| 20260505003626 | 73 | 360 | 7.8 | 11.3 | 0.00 | 0.00 | 0.00 | 30 | 1003.7 |
| 20260505002615 | 73 | 360 | 7.8 | 11.3 | 0.00 | 0.00 | 0.00 | 30 | 1003.8 |
| 20260505001644 | 74 | 360 | 7.8 | 12.2 | 0.00 | 0.00 | 0.00 | 30 | 1003.8 |
| 20260505000625 | 73 | 360 | 6.1 | 13.9 | 0.00 | 0.00 | 0.00 | 30 | 1003.9 |
| 20260504235623 | 73 | 360 | 8.7 | 13.9 | 0.00 | 0.00 | 0.00 | 30 | 1003.9 |
| 20260504234614 | 74 | 360 | 8.7 | 13.0 | 0.00 | 0.00 | 0.00 | 30 | 1004.0 |
| 20260504233626 | 74 | 360 | 8.7 | 14.8 | 0.00 | 0.00 | 0.00 | 28 | 1004.0 |
| 20260504232615 | 74 | 360 | 8.7 | 13.0 | 0.00 | 0.00 | 0.00 | 29 | 1004.0 |
| 20260504231647 | 73 | 360 | 9.6 | 14.8 | 0.00 | 0.00 | 0.00 | 31 | 1004.1 |
| 20260504230630 | 73 | 360 | 10.4 | 17.4 | 0.00 | 0.00 | 0.00 | 31 | 1004.1 |
| 20260504225628 | 74 | 360 | 9.6 | 16.5 | 0.00 | 0.00 | 0.00 | 31 | 1004.3 |
| 20260504224618 | 73 | 360 | 10.4 | 19.1 | 0.00 | 0.00 | 0.00 | 30 | 1004.1 |
| 20260504223629 | 73 | 360 | 13.0 | 20.9 | 0.00 | 0.00 | 0.00 | 30 | 1004.1 |
| 20260504222632 | 74 | 360 | 12.2 | 19.1 | 0.00 | 0.00 | 0.00 | 30 | 1004.1 |
| 20260504221619 | 77 | 360 | 5.2 | 10.4 | 0.00 | 0.00 | 0.00 | 23 | 1004.1 |
| 20260504220629 | 76 | 227 | 4.3 | 8.7 | 0.00 | 0.00 | 0.00 | 21 | 1004.4 |
| 20260504215648 | 77 | 360 | 2.6 | 11.3 | 0.00 | 0.00 | 0.00 | 22 | 1004.3 |
| 20260504214612 | 77 | 360 | 5.2 | 8.7 | 0.00 | 0.00 | 0.00 | 22 | 1004.4 |
| 20260504213621 | 78 | 360 | 4.3 | 8.7 | 0.00 | 0.00 | 0.00 | 21 | 1004.6 |
| 20260504212629 | 77 | 306 | 1.7 | 3.5 | 0.00 | 0.00 | 0.00 | 21 | 1004.8 |
| 20260504211617 | 76 | 360 | 2.6 | 7.0 | 0.00 | 0.00 | 0.00 | 22 | 1005.1 |
| 20260504210622 | 75 | 360 | 3.5 | 7.8 | 0.00 | 0.00 | 0.00 | 23 | 1005.1 |
| 20260504205644 | 76 | 360 | 6.1 | 9.6 | 0.00 | 0.00 | 0.00 | 22 | 1005.2 |
| 20260504204631 | 77 | 360 | 4.3 | 8.7 | 0.00 | 0.00 | 0.00 | 22 | 1005.3 |
| 20260504203617 | 77 | 360 | 3.5 | 8.7 | 0.00 | 0.00 | 0.00 | 23 | 1005.5 |
| 20260504202624 | 76 | 360 | 3.5 | 7.8 | 0.00 | 0.00 | 0.00 | 23 | 1005.5 |
| 20260504201619 | 75 | 360 | 3.5 | 7.0 | 0.00 | 0.00 | 0.00 | 24 | 1005.5 |
| 20260504200615 | 75 | 327 | 4.3 | 8.7 | 0.00 | 0.00 | 0.00 | 24 | 1005.7 |
| 20260504195612 | 75 | 217 | 1.7 | 7.0 | 0.00 | 0.00 | 0.00 | 24 | 1005.7 |
| 20260504194619 | 75 | 304 | 3.5 | 13.9 | 0.00 | 0.00 | 0.00 | 22 | 1005.9 |
| 20260504193613 | 74 | 307 | 1.7 | 7.8 | 0.00 | 0.00 | 0.00 | 25 | 1006.0 |
| 20260504192643 | 74 | 360 | 4.3 | 8.7 | 0.00 | 0.00 | 0.00 | 26 | 1006.3 |
| 20260504191615 | 73 | 360 | 4.3 | 7.8 | 0.00 | 0.00 | 0.00 | 26 | 1006.1 |
| 20260504190636 | 73 | 360 | 0.9 | 7.8 | 0.00 | 0.00 | 0.00 | 25 | 1006.4 |
| 20260504185614 | 73 | 360 | 5.2 | 10.4 | 0.00 | 0.00 | 0.00 | 26 | 1006.4 |
| 20260504184625 | 73 | 360 | 4.3 | 9.6 | 0.00 | 0.00 | 0.00 | 27 | 1006.7 |
| 20260504183650 | 72 | 360 | 2.6 | 9.6 | 0.00 | 0.00 | 0.00 | 27 | 1006.6 |
| 20260504182614 | 73 | 360 | 4.3 | 7.0 | 0.00 | 0.00 | 0.00 | 27 | 1006.7 |
| 20260504181620 | 73 | 360 | 6.1 | 10.4 | 0.00 | 0.00 | 0.00 | 27 | 1007.1 |
| 20260504180616 | 72 | 360 | 6.1 | 9.6 | 0.00 | 0.00 | 0.00 | 32 | 1006.9 |
| 20260504175615 | 71 | 82 | 1.7 | 4.3 | 0.00 | 0.00 | 0.00 | 29 | 1007.2 |
| 20260504174640 | 71 | 151 | 3.5 | 8.7 | 0.00 | 0.00 | 0.00 | 31 | 1007.2 |
| 20260504173627 | 71 | 207 | 7.0 | 8.7 | 0.00 | 0.00 | 0.00 | 34 | 1007.1 |
| 20260504172618 | 70 | 360 | 3.5 | 9.6 | 0.00 | 0.00 | 0.00 | 33 | 1007.2 |
| 20260504171629 | 70 | 360 | 1.7 | 5.2 | 0.00 | 0.00 | 0.00 | 33 | 1007.3 |
| 20260504170651 | 70 | 360 | 2.6 | 5.2 | 0.00 | 0.00 | 0.00 | 33 | 1007.5 |
| 20260504150612 | 65 | 360 | 4.3 | 8.7 | 0.00 | 0.00 | 0.00 | 43 | 1007.6 |
| 20260504140634 | 61 | 360 | 3.5 | 7.0 | 0.00 | 0.00 | 0.00 | 47 | 1007.7 |
| 20260504130618 | 51 | 360 | 0.0 | 1.7 | 0.00 | 0.00 | 0.00 | 52 | 1007.9 |